Location: Bruchhof
(51.8738°N, 9.9256°E)
Time: 20:46:23
(UTC+00:00)

IDEFIX/ARIANE 42P - Visible Passes

Search period start: 19 September 2024 00:00
Search period end: 29 September 2024 00:00
Orbit: 782 x 799 km, 98.5° (Epoch: 19 September)

Date Brightness Start Highest point End Pass type
(mag) Time Alt. Az. Time Alt. Az. Time Alt. Az.
19 Sep 2.9 01:23:29 10° NNE 01:27:55 64° N 01:27:55 64° N visible
19 Sep 4.2 03:04:05 10° NNW 03:07:35 18° NW 03:08:39 17° WNW visible
20 Sep 3.5 00:54:10 10° NNE 00:58:06 45° NE 00:58:06 45° NE visible
20 Sep 3.7 02:34:10 10° N 02:38:34 28° WNW 02:38:50 28° WNW visible
21 Sep 4.2 00:25:03 10° NNE 00:28:17 29° ENE 00:28:17 29° ENE visible
21 Sep 3.2 02:04:29 10° N 02:09:01 43° NW 02:09:01 43° NW visible
21 Sep 4.8 23:56:16 10° NE 23:58:28 18° ENE 23:58:28 18° ENE visible
22 Sep 3.0 01:34:57 10° NNE 01:39:12 56° NNW 01:39:12 56° NNW visible
22 Sep 4.3 03:15:52 10° NNW 03:18:51 16° NW 03:19:56 15° WNW visible
22 Sep 5.3 23:28:22 10° ENE 23:28:39 11° ENE 23:28:39 11° ENE visible
23 Sep 3.4 01:05:34 10° NNE 01:09:23 47° NE 01:09:23 47° NE visible
23 Sep 3.9 02:45:48 10° N 02:49:54 24° WNW 02:50:07 23° WNW visible
24 Sep 4.1 00:36:22 10° NNE 00:39:34 31° NE 00:39:34 31° NE visible
24 Sep 3.4 02:16:02 10° N 02:20:17 35° NW 02:20:17 35° NW visible
25 Sep 4.7 00:07:24 10° NE 00:09:45 20° ENE 00:09:45 20° ENE visible
25 Sep 3.2 01:46:26 10° N 01:50:28 48° NNW 01:50:28 48° NNW visible
25 Sep 4.5 03:27:45 10° NNW 03:30:06 13° NW 03:31:12 12° WNW visible
25 Sep 5.2 23:39:00 10° NE 23:39:55 12° ENE 23:39:55 12° ENE visible
26 Sep 3.5 01:16:59 10° NNE 01:20:39 46° NNE 01:20:39 46° NNE visible
26 Sep 4.1 02:57:27 10° N 03:01:11 20° NW 03:01:22 20° WNW visible
27 Sep 4.1 00:47:42 10° NNE 00:50:49 33° NE 00:50:49 33° NE visible
27 Sep 3.7 02:27:35 10° N 02:31:32 30° NW 02:31:32 30° NW visible
28 Sep 4.7 00:18:38 10° NNE 00:20:59 22° NE 00:20:59 22° NE visible
28 Sep 3.4 01:57:55 10° N 02:01:43 40° NNW 02:01:43 40° NNW visible
28 Sep 4.6 03:39:53 10° NNW 03:41:19 11° NW 03:42:26 10° WNW visible
28 Sep 5.1 23:49:56 10° NE 23:51:09 14° NE 23:51:09 14° NE visible
